Flag for France Weather past 2 weeks in Royan, France

Now
70 °F

Passing clouds.


Feels Like: 70 °F
Forecast: 55 / 69 °F
Wind: 12 mph from Northeast

Location: Cognac Airport

Current Time: May 26, 2015 at 6:57:28 PM

Latest Report: May 26, 2015 at 6:30 PM


Visibility: N/A

Pressure: 30.21 "Hg

Humidity: 40%

Dew point: 45 °F

Location of RoyanLocation

Historic Weather in Royan — Graph

°F

Royan temperature yesterday

Maximum temperature yesterday: 73 °F (at 4:00 PM)
Minimum temperature yesterday: 50 °F (at 6:30 AM)
Average temperature yesterday: 62 °F

Past Weeks' High & Low Weather Summary

 TemperatureHumidityPressure
High81 °F (May 11, 5:00 PM)100% (May 12, 3:30 AM)30.45 "Hg (May 12, 3:30 AM)
Low43 °F (May 21, 6:00 AM)37% (May 21, 4:00 PM)29.92 "Hg (May 15, 2:00 AM)
Average59 °F74%30.17 "Hg
* Reported May 11 5:00 PM — May 26 5:30 PM, Royan, Weather by CustomWeather, © 2015

Note: Actual official high and low records may vary slightly from our data, if they occured in-between our weather recording intervals... More about our weather records

Advertising

Royan weather history for previous 24 hours

 ConditionsComfort  
Time TempWeatherWind HumidityBarometerVisibility
5:30 PM
Tue, May 26
68 °FPassing clouds.13 mph46%30.21 "HgN/A
5:00 PM68 °FSunny.12 mph46%30.21 "Hg10 mi
4:30 PM66 °FPartly sunny.13 mph49%30.21 "HgN/A
4:00 PM64 °FPartly sunny.10 mph49%30.21 "HgN/A
3:30 PM64 °FOvercast.10 mph49%30.21 "HgN/A
3:00 PM64 °FOvercast.12 mph49%30.21 "HgN/A
2:30 PM64 °FPassing clouds.13 mph49%30.21 "HgN/A
2:00 PM64 °FOvercast.12 mph46%30.21 "HgN/A
1:30 PM63 °FOvercast.9 mph49%30.21 "HgN/A
1:00 PM63 °FMostly cloudy.10 mph52%30.21 "HgN/A
12:30 PM63 °FCloudy.10 mph52%30.21 "HgN/A
12:00 PM63 °FPassing clouds.12 mph56%30.21 "HgN/A
11:30 AM63 °FSunny.13 mph59%30.21 "Hg10 mi
11:00 AM61 °FSunny.12 mph63%30.21 "Hg10 mi
10:30 AM61 °FPartly sunny.12 mph59%30.18 "HgN/A
10:00 AM61 °FClear.10 mph59%30.18 "HgN/A
9:30 AM59 °FClear.10 mph63%30.18 "HgN/A
9:00 AM57 °FClear.10 mph67%30.18 "HgN/A
8:30 AM57 °FClear.9 mph72%30.15 "HgN/A
8:00 AM57 °FClear.9 mph72%30.15 "HgN/A
7:30 AM55 °FClear.9 mph77%30.15 "HgN/A
7:00 AM55 °FOvercast.10 mph77%30.15 "HgN/A
6:30 AM55 °FClear.8 mph77%30.15 "HgN/A
6:00 AM55 °FClear.9 mph77%30.12 "HgN/A
5:30 AM55 °FClear.9 mph77%30.12 "HgN/A
4:30 AM55 °FClear.6 mph82%30.12 "HgN/A
4:00 AM57 °FClear.7 mph77%30.12 "HgN/A
3:30 AM57 °FPassing clouds.7 mph82%30.12 "HgN/A
3:00 AM59 °FClear.5 mph77%30.12 "HgN/A
2:30 AM55 °FOvercast.2 mph88%30.12 "HgN/A
2:00 AM55 °FOvercast.2 mph88%30.12 "HgN/A
1:30 AM55 °FPassing clouds.2 mph88%30.12 "HgN/A
1:00 AM54 °FClear.3 mph94%30.12 "HgN/A
12:30 AM55 °FClear.6 mph88%30.12 "HgN/A
12:00 AM55 °FClear.6 mph88%30.12 "HgN/A
11:30 PM
Mon, May 25
55 °FClear.5 mph88%30.12 "HgN/A
11:00 PM57 °FPassing clouds.6 mph82%30.12 "HgN/A
10:30 PM57 °FClear.8 mph82%30.12 "HgN/A
10:00 PM59 °FClear.10 mph82%30.09 "HgN/A
9:30 PM61 °FClear.13 mph77%30.09 "HgN/A
9:00 PM64 °FClear.14 mph68%30.09 "HgN/A
8:30 PM64 °FClear.14 mph68%30.09 "HgN/A
8:00 PM66 °FClear.15 mph64%30.09 "HgN/A
7:30 PM68 °FPassing clouds.14 mph64%30.09 "HgN/A
7:00 PM70 °FScattered clouds.16 mph60%30.07 "HgN/A
6:30 PM70 °FPartly sunny.14 mph60%30.09 "HgN/A
6:00 PM70 °FBroken clouds.15 mph57%30.09 "HgN/A
Weather by CustomWeather, © 2015

See weather overviewHow to use our weather pages